Wind_Speed
16 16 17 17 17 18 18 19 19 20 21 23 24 26 27 29 31 32 34 35 37 39 40 42 43 43 43 42 42 41 42 42 43 44 49 52 53 53 52 50 49 48 47 48 48 48 47 45 43 41 39 37 34 32 32 31 28 26 24 20 17 16 18 19 15 12 11 9 8 8 8 9 8 6 4 2 5 7 11 15 18 21 21 21 22 22 23 24
18 18 18 18 19 19 19 19 19 19 20 21 22 24 26 28 30 32 34 35 37 39 41 42 44 44 44 44 43 43 42 43 44 45 48 52 54 55 54 52 51 50 49 48 49 49 48 46 45 43 41 40 37 35 34 34 31 27 25 23 21 20 21 19 16 14 12 10 11 13 12 12 12 9 3 2 5 5 9 15 19 19 21 21 21 22 22 23
20 20 20 21 21 21 21 21 20 20 20 21 21 22 24 27 29 32 34 35 37 39 41 43 44 45 46 46 45 44 44 44 45 46 47 52 56 57 56 54 53 52 50 50 50 50 49 48 46 45 43 42 40 37 36 35 34 30 27 26 24 23 23 19 15 14 12 11 12 14 14 13 11 7 3 1 6 6 6 11 16 18 19 20 21 21 20 21
23 23 23 23 23 23 23 23 23 23 22 22 23 23 24 25 28 30 33 35 37 39 41 43 45 46 47 48 47 47 46 45 46 47 48 51 56 59 58 57 56 54 52 51 51 51 51 50 48 46 45 43 41 39 37 37 36 34 31 27 26 26 22 19 16 14 13 11 12 13 13 11 6 4 4 1 6 7 7 9 12 16 18 19 20 20 19 20
26 26 26 26 26 26 26 26 26 26 25 25 25 25 25 26 27 29 31 34 37 39 41 43 45 47 48 49 49 49 48 47 47 48 48 50 55 59 60 59 58 56 54 53 53 53 53 52 49 47 46 44 43 41 40 39 38 37 34 28 27 26 22 20 17 15 13 12 12 12 12 11 6 6 6 1 4 6 8 9 10 13 16 18 18 18 18 18
29 29 29 29 29 29 28 28 28 28 28 28 28 27 27 27 28 29 30 32 36 39 41 43 45 47 48 50 50 50 50 50 49 49 50 51 53 58 61 61 60 58 57 56 55 54 54 53 51 48 47 46 45 44 42 41 40 39 37 31 28 26 23 21 18 16 13 12 14 14 13 12 10 10 8 3 0 3 6 8 10 12 14 17 16 15 17 17
32 32 32 32 31 31 31 31 31 31 31 31 31 30 29 29 30 31 31 32 34 37 41 43 45 47 49 50 51 52 52 52 52 51 51 52 53 56 61 63 62 61 59 58 57 56 55 55 52 49 48 47 47 46 44 43 41 40 39 34 29 26 25 22 19 17 14 14 15 13 13 12 11 11 8 4 3 2 3 6 9 11 14 16 14 13 15 16
36 36 36 36 35 35 35 35 34 34 34 34 34 34 33 32 32 32 33 33 34 36 40 43 45 47 49 51 52 53 53 54 54 53 53 53 53 55 59 63 64 63 62 60 58 57 57 56 54 51 49 49 48 47 46 44 43 42 40 37 32 28 26 23 22 19 17 18 15 11 13 12 10 10 9 6 4 4 3 4 8 10 14 16 12 11 13 14
41 42 41 41 40 40 39 39 39 38 37 37 37 36 36 36 35 35 35 34 35 37 39 42 45 47 49 50 52 54 54 55 55 55 54 54 54 54 57 62 65 65 64 62 61 59 58 57 55 52 51 50 49 48 47 46 45 43 41 39 35 29 26 25 25 23 19 19 14 12 14 13 10 8 9 9 6 6 5 4 7 9 13 15 11 10 12 12
47 47 47 47 46 45 44 44 43 43 42 41 40 39 39 39 39 39 38 37 37 38 40 41 44 47 49 50 52 54 55 56 56 56 56 56 56 56 56 60 64 67 66 65 64 62 60 58 56 54 53 52 50 50 50 49 48 45 42 40 36 31 29 27 28 27 21 18 14 12 15 14 12 10 9 8 5 6 7 7 7 8 11 13 10 8 10 11
50 50 50 51 50 50 50 49 48 47 46 45 44 43 42 42 42 42 42 40 39 40 42 43 44 46 48 51 52 53 56 57 58 58 59 59 58 58 58 58 63 67 69 68 66 64 61 58 56 55 54 53 52 52 52 51 50 47 44 42 38 35 32 30 30 28 23 18 14 13 16 15 15 14 12 7 5 6 7 9 9 7 8 11 9 7 8 9
51 51 52 52 53 53 53 53 52 51 51 50 49 48 47 46 45 45 45 44 44 43 43 44 45 46 48 50 52 53 56 58 60 60 61 61 61 60 59 59 61 65 70 70 68 65 62 59 58 56 55 55 54 53 53 53 52 49 46 44 42 38 35 33 31 27 24 21 16 16 18 18 17 17 15 10 6 5 8 10 9 6 7 9 7 5 7 8
53 53 53 54 55 55 55 55 55 54 54 53 52 52 51 50 49 49 48 48 48 47 46 46 47 48 48 49 52 55 57 59 61 62 62 63 63 62 61 61 61 64 68 71 69 67 65 63 61 59 58 57 56 55 54 54 54 52 49 48 47 43 38 37 32 27 28 26 20 19 19 19 19 17 15 13 9 7 8 10 8 5 5 7 4 3 5 7
55 56 56 57 57 58 58 57 57 56 56 55 55 54 54 53 53 52 52 51 51 51 51 50 49 49 49 49 52 56 58 59 61 63 64 64 64 64 63 63 63 64 66 70 71 69 67 66 64 62 61 60 58 57 56 56 56 54 53 52 52 48 43 41 35 28 32 31 24 23 23 21 19 17 14 13 12 9 8 8 7 6 4 5 2 1 5 6
58 58 59 60 61 61 61 60 60 59 58 57 57 56 56 55 55 55 55 55 55 54 54 54 52 50 50 51 53 55 57 59 61 63 64 65 65 65 65 65 65 65 65 67 70 71 70 69 67 64 63 63 61 59 58 58 58 57 55 54 55 53 48 46 39 30 35 36 29 27 26 23 20 17 12 11 12 10 8 8 7 6 3 3 2 2 4 5
59 60 61 62 64 65 65 64 63 62 60 59 59 58 58 58 58 58 59 59 58 58 57 57 56 53 51 53 55 57 57 58 60 62 63 64 65 66 67 66 66 65 65 65 68 71 73 71 70 68 66 65 63 61 60 59 60 59 58 56 55 55 53 52 47 36 37 40 33 28 26 23 21 18 12 12 14 11 9 9 8 8 3 2 2 3 4 5
61 62 63 64 66 67 67 67 66 65 63 62 61 61 61 62 61 62 61 61 61 60 59 59 58 57 55 54 56 57 56 56 59 61 62 64 65 67 67 68 68 67 67 66 66 69 73 74 73 71 69 67 65 64 62 61 63 63 61 59 57 57 55 54 53 44 40 41 36 30 27 23 22 20 16 16 17 13 11 10 9 9 5 2 2 3 4 5
64 65 66 67 67 68 68 68 68 67 66 64 64 65 65 65 65 65 64 63 63 63 62 61 60 61 58 56 56 57 56 56 58 61 63 64 66 67 68 69 69 69 68 67 66 67 71 75 75 73 70 69 67 65 65 65 66 65 63 62 59 59 56 54 54 49 44 42 38 32 28 25 23 22 20 20 19 17 15 13 11 11 8 4 3 3 4 4
68 68 69 69 68 68 68 68 69 68 68 68 68 68 68 68 67 67 66 65 65 65 64 63 62 62 61 59 58 57 58 59 59 61 64 65 66 68 69 70 70 70 70 69 68 67 69 73 75 74 72 71 70 69 70 68 66 65 65 64 62 61 58 56 52 48 44 43 39 35 30 27 24 22 22 23 24 22 21 19 15 14 11 7 5 4 3 3
71 71 70 69 68 67 66 66 67 68 69 70 71 71 70 70 69 68 67 68 68 68 66 65 64 63 63 63 61 59 59 61 62 63 65 66 67 68 69 70 71 72 72 72 71 69 68 70 74 76 76 75 75 74 73 70 67 66 66 65 64 63 63 61 55 48 45 44 40 35 29 27 25 23 25 27 28 26 25 22 17 16 15 10 7 6 5 5
73 71 69 66 64 62 61 61 62 63 65 66 67 68 69 70 69 68 68 70 70 69 67 66 65 64 64 65 65 62 61 62 64 65 65 67 68 68 69 71 72 73 74 74 72 70 68 67 71 77 80 79 79 77 74 71 69 67 67 67 66 66 66 65 59 51 47 45 40 34 30 28 27 26 27 30 30 27 25 24 19 17 17 13 9 8 7 7
71 68 64 60 56 54 52 52 53 54 56 58 59 61 63 65 66 66 68 70 71 70 69 68 67 66 66 67 68 67 65 64 66 67 68 69 69 70 70 72 73 75 76 75 73 71 69 69 71 77 81 82 81 79 76 73 71 68 67 68 68 68 67 66 64 57 50 45 39 35 35 33 31 29 28 30 31 29 26 24 21 19 18 15 11 10 10 9
67 61 56 51 48 45 43 42 43 44 45 47 50 52 56 59 61 63 66 69 70 70 69 69 68 67 67 69 70 71 69 66 67 69 71 71 72 71 72 73 75 76 76 75 74 73 72 73 74 76 79 82 82 81 79 75 72 70 68 69 70 69 68 68 67 62 57 50 41 38 42 39 35 33 30 32 33 31 30 29 23 22 22 18 13 12 12 11
61 54 48 44 41 38 35 35 35 36 37 39 41 44 48 52 55 59 62 66 68 69 70 70 70 70 70 71 72 73 72 69 68 70 72 74 74 73 73 74 76 77 76 76 76 76 77 78 76 74 76 81 84 83 81 78 74 72 70 71 71 71 71 70 68 65 61 56 46 40 43 42 37 35 33 33 35 33 33 31 26 24 26 22 17 14 13 13
55 48 43 39 35 32 30 29 29 29 30 31 34 37 41 45 50 54 59 63 66 68 69 70 71 72 73 74 74 74 74 73 71 72 74 76 77 76 75 75 76 77 77 78 78 79 80 79 77 75 75 78 83 85 83 80 78 74 72 72 73 74 73 71 68 67 64 61 53 44 44 44 38 36 34 31 33 36 35 31 27 26 27 25 22 19 16 15
51 44 38 34 31 28 26 24 23 23 24 26 28 31 35 39 45 50 55 59 62 65 67 69 71 72 73 74 74 74 76 75 73 73 75 78 79 78 77 77 78 78 79 79 80 81 81 80 78 77 76 77 80 84 84 83 81 77 75 75 76 76 74 72 70 69 68 67 62 50 46 46 42 39 37 32 31 35 35 32 29 27 26 24 23 21 20 18
47 40 35 30 26 23 21 20 18 18 19 21 23 26 30 34 39 44 49 53 58 61 64 67 69 71 72 73 74 76 77 76 75 74 76 79 80 80 79 79 79 79 80 79 79 81 81 81 80 79 78 77 78 81 85 85 82 80 79 78 78 77 75 73 72 72 72 70 66 57 49 49 48 44 44 40 35 33 32 32 30 27 25 23 19 18 18 17
44 37 31 25 22 19 17 15 14 14 15 16 18 21 25 29 34 38 43 47 52 57 60 64 67 69 71 73 74 76 76 76 76 76 78 81 82 82 82 82 80 80 79 78 79 81 82 82 82 81 80 78 77 80 84 86 85 85 84 81 79 79 77 76 75 74 74 72 70 66 57 52 53 51 50 48 43 36 33 32 30 29 27 23 20 19 17 15
41 34 27 22 19 17 15 13 12 11 11 13 15 18 21 24 28 33 37 42 47 51 55 59 62 65 68 70 72 74 75 77 77 77 79 82 84 85 85 84 83 81 79 79 80 82 82 83 83 82 80 79 80 81 83 85 88 89 87 84 82 80 79 78 77 75 74 73 73 73 67 60 58 57 52 50 48 43 37 34 32 32 31 26 22 23 21 17
38 31 24 20 18 16 14 12 11 10 10 10 12 15 18 21 24 28 32 36 40 44 49 53 56 60 63 66 69 72 75 77 78 78 80 83 86 88 87 85 84 82 79 79 81 83 84 84 84 82 81 82 83 84 82 84 89 90 89 87 85 82 80 79 78 76 74 73 74 76 75 70 66 63 55 51 52 49 43 39 36 34 34 31 27 26 23 18
35 28 22 19 16 14 12 11 10 9 9 9 11 13 15 18 21 24 27 31 34 38 43 47 50 54 58 61 65 69 73 76 78 79 81 84 88 89 89 87 86 83 80 80 82 84 85 85 84 84 84 85 85 85 83 84 87 89 90 90 87 83 81 79 79 78 75 75 76 78 78 76 74 70 62 56 54 52 47 43 39 36 35 33 32 31 26 21
32 25 20 18 15 13 12 11 10 9 9 9 10 12 13 15 18 20 24 27 31 34 39 43 46 49 52 57 61 65 70 74 77 79 82 85 89 91 91 90 88 86 84 83 84 85 85 85 85 85 86 87 87 86 85 85 85 86 89 91 89 85 83 81 80 79 78 79 79 79 79 79 79 76 70 63 59 56 52 47 43 40 37 36 35 34 30 26
30 22 18 16 15 13 12 11 10 9 9 9 10 11 12 13 16 18 21 25 28 31 36 40 43 46 49 53 57 61 65 70 75 78 80 84 88 92 93 93 91 90 89 86 85 85 85 85 85 86 87 87 88 88 87 86 84 84 86 89 90 87 84 83 82 80 80 82 82 80 80 79 79 78 74 70 66 63 60 55 50 46 42 39 36 34 32 30
28 20 16 15 14 13 12 11 10 9 9 9 9 10 11 12 15 17 20 23 26 29 33 37 40 44 48 51 55 58 62 67 72 75 79 83 87 91 94 95 95 94 93 90 87 86 85 85 85 85 86 87 88 88 88 88 87 86 86 87 89 88 85 84 84 82 82 84 84 83 80 78 78 77 74 72 70 67 64 59 54 53 50 45 40 37 35 33
26 19 16 15 14 14 13 11 10 9 9 9 9 10 11 12 14 16 19 23 26 28 32 36 39 42 46 50 52 55 59 63 68 72 77 82 86 90 94 96 97 96 95 93 91 88 86 85 85 85 86 87 88 89 90 90 90 89 87 86 87 88 87 86 86 85 85 85 85 83 80 78 77 76 73 72 70 67 65 60 56 56 56 53 48 43 40 38
25 18 15 15 15 15 14 11 10 9 8 8 9 10 11 13 15 17 20 24 26 29 32 35 39 42 45 47 50 53 57 60 64 69 74 78 82 87 92 94 96 95 95 94 92 90 87 85 85 85 86 86 88 90 91 92 92 90 87 86 87 87 89 89 88 89 88 87 86 83 80 79 77 75 73 71 70 67 65 63 60 58 57 57 53 46 42 42
24 18 16 16 15 15 15 12 10 9 9 9 10 11 13 15 18 21 23 26 29 32 34 36 39 42 44 46 49 52 55 58 61 66 70 74 77 82 87 90 92 93 94 93 92 91 89 87 86 86 86 87 89 90 91 93 94 92 89 89 87 86 89 91 91 91 90 88 86 83 81 79 77 74 73 72 70 68 65 64 63 61 57 56 54 48 43 41
25 19 17 17 16 15 15 13 11 10 11 12 13 14 16 19 22 25 27 30 32 35 37 39 40 42 44 46 48 51 54 57 60 63 66 69 72 76 81 85 88 91 93 93 92 92 92 90 87 87 87 88 89 90 91 93 94 93 92 91 89 87 88 90 92 92 91 89 87 85 82 80 77 76 74 72 71 69 68 66 65 64 60 57 54 51 47 41
25 20 18 18 16 14 14 13 12 12 13 14 15 16 18 20 23 26 29 32 34 37 40 42 43 42 43 45 48 50 53 56 59 61 63 65 68 71 75 80 83 87 91 93 93 94 94 92 90 89 89 88 89 89 89 91 93 92 92 92 90 89 88 89 91 93 93 91 90 88 85 82 79 77 76 74 71 70 69 67 66 64 62 59 56 52 49 45
25 20 18 18 16 14 13 13 13 13 14 15 17 18 19 21 24 26 28 30 32 36 40 43 45 44 43 44 47 49 53 56 58 60 61 64 66 68 71 74 79 84 89 92 94 94 94 93 92 91 90 89 89 89 89 91 92 92 92 92 92 91 91 90 91 92 93 93 92 90 87 85 82 80 79 76 72 70 69 68 66 64 61 60 59 55 50 47
26 20 18 17 15 13 13 13 13 14 15 16 17 19 21 23 24 25 26 28 29 32 36 40 43 44 45 46 47 49 53 56 57 59 61 64 67 69 70 71 74 80 85 89 92 94 94 95 94 94 92 91 90 90 91 92 93 93 93 94 94 93 93 92 90 90 91 92 93 91 89 88 85 83 81 78 75 72 70 67 65 65 62 59 59 57 54 49
27 22 18 15 14 13 13 13 14 14 16 18 19 21 23 24 24 25 26 27 28 30 33 36 38 42 47 49 49 50 53 55 55 58 62 64 66 68 70 71 73 76 81 85 90 93 94 95 95 95 94 93 92 92 93 93 93 94 94 95 95 95 94 92 90 89 89 90 92 92 91 89 87 84 82 81 78 75 72 70 66 65 64 61 59 57 56 53
28 23 19 17 15 15 14 14 15 15 16 19 21 23 25 26 26 27 26 24 25 26 29 32 35 39 45 50 52 53 55 55 56 58 61 62 64 67 70 72 73 75 78 82 86 90 93 94 94 95 95 95 95 94 95 95 94 94 95 95 95 95 94 93 91 90 88 87 89 90 90 89 87 86 84 83 81 79 76 73 69 66 65 64 60 56 54 54
28 23 20 19 18 17 15 15 16 16 17 19 21 24 25 27 29 29 26 22 20 22 25 28 31 35 40 47 52 55 57 57 57 59 61 62 65 67 69 71 74 76 77 79 83 87 90 92 94 95 96 96 96 97 97 96 96 96 95 94 94 94 93 93 93 91 89 87 87 87 88 88 87 86 86 84 83 81 79 75 73 71 69 67 62 56 54 55
28 23 20 19 19 17 15 16 17 17 18 19 21 24 26 27 30 31 26 20 17 18 21 25 28 32 37 42 48 53 57 59 59 60 61 63 65 66 68 71 73 75 77 79 81 83 86 90 92 94 96 97 98 99 98 98 97 96 96 94 94 93 93 93 94 93 91 89 87 86 86 87 87 86 86 86 84 82 81 79 77 75 73 70 66 63 62 59
28 23 20 19 19 16 14 15 17 18 19 20 21 24 25 27 30 31 27 21 16 15 17 20 24 28 33 38 43 49 54 58 60 62 63 63 65 66 68 70 71 73 75 77 79 81 83 87 90 93 95 97 99 100 99 99 97 96 95 94 94 94 93 93 94 94 93 91 89 87 86 85 85 86 86 87 85 83 83 83 81 80 77 73 70 68 68 66
27 23 20 19 18 16 14 15 17 18 19 20 21 23 25 26 29 30 26 21 17 14 14 15 19 24 28 32 38 43 49 55 60 64 65 65 66 67 68 69 71 73 75 76 78 79 81 84 87 90 93 96 98 100 100 99 98 96 95 94 94 94 94 95 95 95 94 93 91 90 88 86 85 85 86 87 87 85 84 84 83 82 80 77 74 72 71 70
28 24 20 19 17 16 15 15 17 18 18 20 22 24 25 26 29 29 25 21 19 15 12 12 14 18 22 26 32 38 45 51 57 62 66 68 68 68 68 69 71 73 75 76 77 78 79 81 84 87 90 93 96 98 99 100 99 97 96 95 95 95 95 95 95 95 95 94 93 92 90 88 86 86 86 87 88 87 85 84 84 83 82 80 78 77 75 73
29 25 21 19 17 16 15 16 17 18 18 20 22 24 25 26 28 29 25 21 19 17 13 10 10 13 17 21 26 33 39 45 52 58 63 67 70 71 70 70 72 74 76 78 79 79 78 79 82 84 87 90 93 96 98 99 98 98 97 97 96 96 96 96 95 96 96 95 94 93 92 91 89 87 87 86 87 87 86 85 83 83 83 83 82 81 79 76
29 25 22 19 17 17 16 17 18 18 19 20 22 23 24 26 27 28 27 23 20 18 15 11 8 9 13 17 22 27 33 39 46 52 58 63 68 71 72 72 73 74 76 78 79 80 79 80 81 82 85 87 89 92 95 97 97 97 97 97 98 98 98 97 96 97 97 95 95 94 94 93 91 89 88 86 85 85 86 86 86 85 84 85 85 83 83 81
29 25 22 18 17 17 17 17 18 19 19 20 22 23 24 25 27 28 28 26 23 20 17 13 9 7 8 13 17 22 27 33 40 46 51 57 63 69 72 74 74 75 76 78 79 79 80 81 81 80 81 84 86 87 91 94 95 96 96 96 99 101 100 99 98 98 97 96 96 95 94 93 92 91 89 87 86 86 86 88 88 88 87 86 86 84 83 84
30 26 22 19 17 18 18 18 18 19 19 20 22 23 24 25 26 27 28 27 25 22 19 16 12 8 6 8 13 17 21 27 33 40 46 51 56 62 69 73 76 77 77 78 78 79 80 81 81 80 79 80 83 85 88 91 93 94 95 96 98 101 102 101 99 99 98 97 96 96 95 94 94 93 91 89 88 87 88 89 90 90 89 88 86 85 84 84
Wind_Direction
296 295 295 293 292 290 289 288 286 281 276 270 265 260 256 252 248 243 238 235 233 231 228 225 222 220 220 221 221 221 220 219 217 214 212 210 209 210 211 210 209 210 210 210 211 212 213 213 212 212 209 206 203 200 198 197 194 192 186 177 174 189 204 206 203 194 190 201 208 222 232 230 225 232 263 338 338 1 39 31 25 27 27 26 25 29 32 32
297 296 294 294 292 290 286 284 282 281 278 274 269 264 260 255 252 248 243 237 234 232 231 228 225 222 220 220 220 220 220 219 217 215 213 211 209 210 210 211 210 210 210 211 211 212 212 213 213 212 211 208 205 201 200 199 197 192 188 188 182 187 200 199 196 195 193 195 207 219 225 229 228 234 273 350 330 358 42 32 29 30 27 24 22 26 30 32
296 295 293 292 291 289 287 284 280 277 275 272 269 265 262 258 254 251 247 242 237 234 232 231 228 225 222 220 219 219 219 220 218 216 214 212 211 210 210 210 211 211 211 211 211 212 212 212 212 212 211 210 207 204 201 200 199 192 188 194 193 192 199 193 189 199 196 196 212 221 227 232 230 227 214 348 341 14 37 25 29 29 25 21 18 21 26 31
297 295 293 291 289 288 286 285 282 278 274 270 267 264 261 257 255 252 250 247 242 237 234 232 230 228 225 222 220 218 218 219 219 217 215 214 212 212 210 209 211 211 211 212 212 212 212 211 211 212 211 210 209 206 203 201 199 194 189 195 202 202 202 193 191 201 199 202 217 219 223 226 217 187 173 12 2 33 27 10 22 24 21 18 15 16 21 29
297 295 294 291 289 287 285 284 282 280 277 272 267 263 261 258 255 252 249 248 246 242 237 234 232 230 228 225 222 220 218 218 219 218 216 215 213 213 211 210 211 211 211 212 212 212 212 210 210 211 211 210 210 209 205 203 200 197 193 195 206 209 206 200 198 203 206 214 223 222 225 219 188 160 176 302 13 43 21 3 7 13 16 14 11 13 18 25
295 294 293 291 289 287 285 283 282 280 278 275 270 265 261 259 256 254 250 247 247 245 241 236 233 231 230 227 225 222 219 217 218 218 217 216 215 213 212 211 211 211 211 212 213 213 212 211 210 210 210 210 210 210 208 205 201 200 197 196 204 210 207 203 202 208 213 225 232 229 223 207 180 168 185 244 332 55 17 360 352 356 8 10 7 10 15 21
293 292 291 290 288 286 284 283 281 280 278 276 273 269 264 260 257 254 251 248 246 245 244 240 235 232 230 229 227 224 222 219 217 217 218 217 216 215 213 212 212 211 211 212 213 214 213 212 210 209 210 209 209 210 210 208 204 201 199 195 198 206 207 202 200 207 212 222 229 224 212 201 185 175 182 219 231 251 335 354 347 347 1 6 3 7 14 18
292 291 289 288 287 285 283 281 279 278 276 275 273 271 268 264 260 255 251 249 247 245 244 242 239 234 230 229 228 226 224 222 219 217 218 218 217 216 214 213 212 212 212 212 213 214 214 212 211 210 210 209 209 210 210 210 207 203 200 197 196 202 207 203 198 203 212 220 218 208 212 214 202 181 171 194 226 245 270 339 345 345 358 3 359 5 13 15
292 290 288 287 285 284 282 280 278 276 274 272 271 270 268 266 264 259 252 247 246 246 244 242 241 238 233 229 228 227 225 224 221 218 217 218 218 217 216 214 213 213 213 212 213 214 214 212 212 211 210 209 208 209 210 210 209 205 201 199 198 200 206 206 202 203 210 218 209 200 220 223 215 204 182 188 213 231 247 302 334 340 355 0 355 0 11 13
291 289 287 285 284 282 281 280 278 276 273 271 269 267 266 264 263 261 256 250 246 245 244 242 240 239 236 232 228 227 227 225 223 220 218 218 218 218 217 215 214 213 213 212 212 214 214 212 212 211 211 210 208 208 210 210 210 206 201 199 200 200 201 206 209 206 202 206 197 199 228 219 201 216 207 190 204 228 248 277 309 327 350 358 351 356 8 10
290 288 286 284 282 280 279 278 277 276 274 271 269 267 264 263 261 260 258 253 249 245 243 242 240 239 237 235 231 227 226 226 224 222 220 218 218 218 218 217 215 214 214 213 213 213 214 213 213 213 212 211 209 208 210 210 210 207 201 198 200 199 197 202 208 208 202 200 190 196 232 224 195 209 219 203 194 220 250 265 281 306 345 354 345 354 5 6
289 287 285 283 281 279 278 277 276 275 274 272 270 267 264 262 260 258 257 254 251 247 244 241 239 238 237 236 234 229 226 225 224 223 221 219 218 217 218 217 216 215 215 215 214 213 213 213 214 213 212 211 209 208 210 211 210 208 202 197 199 199 196 197 201 206 207 207 199 199 226 228 204 206 220 224 216 217 242 254 264 287 340 350 341 352 3 360
290 287 284 282 280 279 277 276 275 274 273 272 270 268 265 262 259 257 255 253 251 248 245 242 239 237 235 235 235 232 228 225 224 223 221 220 219 218 218 218 217 216 216 215 214 213 212 213 213 214 213 211 210 208 209 211 211 209 204 198 199 199 196 196 196 202 207 207 206 205 216 222 211 209 220 233 234 225 235 243 250 266 326 343 336 352 360 353
291 288 285 283 281 279 278 276 274 273 271 270 269 267 264 262 260 257 254 252 250 247 244 242 239 237 234 234 234 234 231 226 224 223 222 221 220 218 218 218 218 217 216 215 214 213 212 212 213 214 214 212 211 209 209 211 211 210 206 201 200 199 197 197 195 204 210 205 206 208 212 219 214 213 226 238 236 231 233 229 233 247 298 339 321 342 357 348
292 290 287 285 282 280 278 276 274 272 270 269 267 265 262 260 259 257 254 251 249 246 243 241 239 237 234 233 233 233 232 229 225 223 223 222 221 220 218 218 218 218 217 216 215 214 213 212 213 214 215 214 211 210 209 210 211 211 209 204 202 200 199 198 195 206 213 207 208 209 210 218 215 211 221 232 228 230 229 216 223 247 283 347 319 324 349 341
294 291 289 286 284 281 279 277 274 272 269 267 264 262 260 258 257 255 253 251 248 245 243 240 238 236 234 233 232 232 231 230 228 225 223 222 222 221 219 219 219 218 218 217 216 214 213 212 212 213 214 214 213 211 210 210 211 212 210 207 205 203 202 201 197 203 211 207 209 209 207 216 215 206 199 204 216 225 227 219 228 246 272 356 331 322 333 329
296 294 291 289 286 283 280 278 275 272 269 266 262 260 257 256 255 253 252 250 247 245 242 240 237 235 234 233 233 231 230 231 230 228 224 223 222 222 220 219 219 219 218 218 217 215 214 213 213 213 214 215 214 213 211 210 211 211 211 208 206 204 204 204 202 207 210 206 208 208 207 214 216 212 200 196 210 223 226 226 233 241 253 307 310 316 317 314
299 297 294 291 287 284 281 278 276 273 269 266 262 259 257 256 254 251 249 248 246 244 241 239 237 234 233 233 234 232 230 229 230 229 226 223 222 222 221 220 219 219 218 218 217 216 215 214 214 214 214 215 215 214 212 211 211 211 210 209 206 205 206 206 206 211 212 208 208 208 209 214 216 216 211 202 205 214 221 227 234 235 241 259 265 288 299 298
302 300 297 293 289 284 281 277 274 271 268 265 262 260 258 256 253 250 247 245 243 241 239 237 235 233 231 231 232 232 230 228 228 229 227 224 221 221 221 220 219 220 219 218 218 217 216 215 214 214 214 214 215 215 214 212 211 211 211 210 208 206 207 207 208 211 213 210 209 211 214 218 219 221 221 213 207 209 218 229 236 231 231 240 239 253 266 268
305 303 299 295 290 285 280 276 272 268 265 263 260 258 256 254 251 247 244 241 239 238 237 235 234 232 230 229 230 231 230 227 226 227 228 226 222 220 220 220 219 219 219 219 218 217 216 215 215 214 214 213 214 216 215 213 212 211 211 212 209 207 208 208 208 209 210 211 211 212 216 220 219 218 219 213 209 211 217 224 230 223 219 224 226 234 238 232
309 306 302 297 292 286 281 276 271 267 263 260 258 255 252 250 247 243 240 237 235 234 234 233 232 230 228 227 228 229 230 228 225 225 227 227 225 221 220 220 219 218 219 219 218 217 217 216 215 215 214 213 214 216 216 214 212 212 212 213 212 210 209 208 208 208 209 211 212 214 218 218 214 214 217 216 213 214 216 217 222 219 213 212 214 220 225 226
312 309 304 299 294 288 282 277 271 266 262 258 255 251 248 246 243 239 236 234 233 232 231 230 230 228 227 226 226 227 227 227 225 223 224 226 225 222 220 220 220 219 218 218 218 217 217 217 216 215 215 214 215 216 216 215 213 213 212 213 214 213 210 209 209 209 210 210 209 214 218 214 209 210 217 221 218 216 219 220 219 218 214 208 210 218 221 228
316 312 308 302 297 291 285 278 272 266 261 256 252 248 244 241 238 235 232 231 230 229 228 227 227 226 225 224 225 225 226 226 225 223 222 224 224 223 220 219 220 219 218 218 217 216 217 218 217 215 215 215 216 216 217 215 214 213 213 213 214 214 213 212 211 210 210 209 206 213 218 212 206 208 215 221 219 215 220 225 219 213 217 215 215 223 225 230
320 316 312 306 301 295 288 281 274 267 261 255 249 244 240 237 234 231 229 227 226 226 225 225 224 223 223 223 223 223 224 225 225 223 222 222 223 223 221 219 220 219 218 217 216 215 216 218 217 216 215 216 216 216 216 216 214 213 213 215 215 215 215 213 211 209 210 209 206 211 216 212 206 208 217 222 218 212 215 223 219 211 218 221 221 228 233 237
324 320 316 311 305 300 293 285 277 269 262 254 248 243 238 234 230 227 226 224 224 223 223 222 222 221 221 221 221 222 222 223 223 223 222 221 221 222 222 220 219 219 218 217 216 216 216 217 218 217 217 217 217 217 217 216 215 213 213 215 216 216 216 214 212 210 209 209 208 209 211 209 204 206 216 219 215 211 213 220 221 215 220 225 230 235 236 239
327 324 320 315 310 304 297 289 279 271 263 255 247 241 236 232 229 226 224 223 222 221 221 221 221 221 220 220 220 220 221 221 222 222 221 221 220 220 221 221 220 219 218 217 217 217 217 217 217 217 217 217 217 217 217 216 215 213 212 214 216 217 216 214 213 211 210 209 208 209 210 207 202 203 210 212 210 211 214 220 223 219 219 227 236 234 227 232
330 327 324 319 314 309 302 294 285 274 264 255 247 241 236 231 228 226 223 222 221 220 220 220 220 220 220 219 220 220 220 220 220 220 220 221 220 219 220 221 221 220 219 218 217 218 218 217 217 217 218 218 218 218 218 217 216 214 213 213 215 217 216 215 215 213 211 210 208 210 211 207 203 204 209 213 213 211 213 219 220 215 218 227 229 218 214 226
332 330 327 324 320 316 310 301 292 279 266 256 248 241 236 232 229 226 224 222 221 220 219 219 219 219 219 218 219 219 219 219 219 219 219 219 220 219 218 220 221 220 219 218 219 219 218 217 217 217 218 218 218 218 218 217 216 215 214 213 215 216 216 216 216 215 213 210 210 212 212 209 206 208 213 217 219 215 212 218 218 210 212 218 219 215 216 225
333 332 330 329 327 323 319 310 300 287 273 258 248 241 235 231 229 227 224 223 221 220 219 219 219 219 219 218 218 219 219 218 218 218 218 218 218 218 218 218 219 220 219 219 219 219 218 217 217 217 217 218 219 219 218 217 217 216 215 214 214 215 217 217 216 217 215 212 213 214 214 212 210 211 214 218 221 219 214 219 221 214 210 212 219 227 226 224
334 333 332 331 329 326 323 316 306 293 278 263 249 241 235 231 229 228 226 224 222 221 219 219 219 219 219 218 218 219 219 218 217 217 217 217 218 218 217 217 218 219 219 219 219 219 218 217 216 216 216 218 219 220 218 217 217 217 216 215 214 214 216 217 217 217 217 215 216 216 215 215 215 213 212 216 222 222 218 219 223 221 217 215 218 225 225 222
335 334 331 330 328 325 322 315 306 292 277 264 251 243 237 233 230 229 228 226 223 222 221 220 219 219 219 219 219 219 219 218 217 216 215 216 217 217 217 216 216 216 217 218 219 219 219 218 216 215 215 216 218 220 220 219 219 217 217 217 215 214 215 217 218 217 218 218 219 218 216 217 219 217 214 216 221 222 220 219 223 226 226 222 220 222 225 224
335 333 330 328 327 325 322 315 305 290 273 262 251 245 240 236 234 231 230 229 225 223 222 220 219 219 220 220 220 220 220 219 218 216 216 215 215 216 216 215 214 214 214 216 218 219 219 218 217 216 216 216 217 219 220 221 220 218 218 218 217 215 215 217 218 217 218 219 220 220 218 218 220 220 218 218 220 222 222 221 223 228 232 230 225 225 228 228
335 332 328 327 327 326 321 314 305 292 277 262 252 247 242 239 237 235 233 232 228 226 225 223 221 219 219 220 220 221 221 221 219 217 216 216 215 215 216 215 214 213 213 214 216 218 219 218 218 218 217 217 218 219 220 221 221 219 220 220 218 216 215 217 218 218 219 221 221 221 220 220 220 220 220 220 220 223 226 226 227 230 233 232 230 231 233 233
336 331 326 325 328 327 318 309 302 289 276 265 255 248 243 239 238 237 237 235 232 229 228 227 224 222 221 220 220 220 222 222 221 218 217 216 215 215 215 215 214 213 213 213 215 217 218 218 219 219 218 218 218 219 220 221 221 219 219 220 219 218 217 217 218 219 220 221 222 222 222 222 222 221 222 222 221 223 226 227 229 230 231 231 232 235 236 238
337 330 324 323 327 329 320 308 297 282 270 264 260 254 249 246 242 242 242 241 237 233 230 228 226 225 223 222 221 221 221 222 222 221 218 217 216 215 216 215 215 214 214 214 214 215 217 218 219 220 220 219 219 219 219 221 221 220 219 219 219 218 218 218 218 219 220 221 221 222 222 223 224 223 223 223 222 223 225 226 227 228 229 230 234 235 236 240
337 328 320 317 322 328 324 312 296 282 272 267 264 257 254 253 252 250 250 249 246 241 235 232 229 227 225 224 223 222 222 222 222 222 220 218 217 216 216 216 216 216 215 215 215 215 216 217 218 219 220 220 220 220 220 220 221 221 220 220 219 218 218 218 218 220 221 222 222 221 222 223 224 225 225 224 223 223 224 225 226 228 229 230 233 233 232 236
336 325 314 311 315 324 324 313 298 287 278 269 265 260 256 254 254 252 251 251 251 249 245 239 234 230 228 225 223 223 223 222 222 223 222 220 218 218 218 217 217 217 217 217 216 216 216 217 218 219 220 221 221 221 221 221 221 221 221 221 220 219 219 219 218 219 222 223 223 222 222 223 224 225 226 226 225 224 224 224 225 227 228 230 232 231 231 234
335 325 312 308 310 319 321 314 302 289 278 271 267 263 259 256 254 253 251 249 249 251 250 247 241 235 231 228 225 223 223 223 223 223 222 221 219 219 219 218 217 217 218 217 217 217 217 217 218 219 220 221 221 221 222 222 222 221 221 221 221 220 220 220 219 220 221 222 224 223 223 223 224 225 226 227 226 225 224 224 224 225 226 228 231 230 231 235
334 325 313 307 308 315 320 314 300 287 280 276 272 270 267 267 265 262 257 253 249 248 248 248 247 242 235 231 228 225 224 223 223 222 222 221 220 219 219 219 218 218 218 218 218 218 218 217 218 219 220 221 222 223 223 224 223 222 222 222 222 221 221 221 220 220 221 221 223 223 223 223 223 224 226 227 227 226 226 225 225 225 225 226 228 229 228 232
335 325 312 308 309 314 318 312 300 292 287 283 281 282 284 284 282 277 270 262 255 250 247 245 244 243 240 234 230 228 225 223 222 222 221 220 219 218 218 219 219 218 218 218 218 218 218 218 218 219 220 221 222 223 224 225 225 223 223 223 223 222 222 222 220 220 221 221 222 223 223 223 223 224 225 226 228 228 228 227 227 227 226 226 226 225 227 231
335 327 314 308 308 310 314 312 304 297 292 290 291 294 297 296 295 292 286 277 267 258 251 244 240 239 238 235 231 228 227 225 222 221 221 220 219 217 216 217 218 219 218 218 219 219 218 219 219 219 219 220 221 222 223 224 225 225 223 222 222 222 223 223 222 221 221 222 222 223 223 223 223 223 224 225 226 227 229 228 228 227 227 226 225 224 226 230
334 328 316 307 301 300 304 307 304 301 300 301 304 306 307 308 308 307 300 290 277 266 256 248 240 234 232 233 231 228 227 226 223 221 221 220 220 219 216 216 216 218 218 218 219 219 219 219 219 219 219 219 220 221 223 224 225 226 225 223 222 222 222 223 223 223 222 222 223 223 224 224 224 224 225 225 225 226 227 227 227 227 227 227 227 225 226 227
333 327 317 308 301 297 300 306 309 309 308 308 311 314 317 319 319 317 310 298 283 270 259 250 241 234 228 228 228 226 225 224 222 221 221 220 220 220 218 217 216 216 217 218 219 220 220 220 220 220 220 220 220 220 222 223 224 225 226 225 224 223 222 222 223 223 223 224 224 225 225 225 225 225 225 226 226 226 226 226 226 226 226 226 227 225 226 226
332 326 316 309 304 300 303 309 313 313 312 313 317 321 324 327 328 326 320 306 288 273 261 251 242 235 230 226 225 224 224 223 221 220 220 219 219 219 219 218 218 217 217 217 218 219 220 220 220 220 220 220 220 220 220 222 223 224 225 226 226 225 224 223 223 223 223 224 225 226 226 225 225 225 226 226 227 227 227 227 226 226 225 225 224 222 222 223
331 325 315 309 305 302 304 311 315 316 316 320 324 327 329 331 333 332 326 315 298 279 265 254 244 236 230 227 225 223 223 222 221 220 219 218 218 219 219 218 218 218 218 218 218 219 219 220 220 221 221 220 221 221 221 221 222 224 225 226 226 226 225 224 224 223 223 223 224 225 226 226 226 226 226 227 227 227 227 227 227 226 225 224 222 220 218 217
329 324 315 308 305 302 303 310 315 317 320 323 327 330 331 333 337 336 331 322 311 292 273 259 248 240 232 228 225 223 222 221 221 221 220 219 218 217 218 218 219 219 219 219 219 219 219 220 220 221 221 221 221 222 222 222 222 223 225 226 226 226 226 225 224 224 223 222 223 224 225 225 226 226 226 227 227 227 227 227 226 226 225 224 222 221 220 218
329 324 315 308 305 303 304 310 315 318 321 324 328 331 333 335 340 341 335 328 322 310 289 269 254 244 237 231 227 225 223 221 220 220 220 219 219 217 217 217 219 219 219 219 219 219 219 219 220 221 221 221 221 222 222 222 222 222 223 225 226 227 226 226 225 224 223 222 223 224 224 225 225 225 226 227 227 227 227 227 226 226 226 224 223 222 222 222
330 325 317 309 305 303 304 310 316 319 322 326 329 333 334 337 344 347 343 337 332 324 308 284 262 247 238 232 229 226 224 222 221 220 220 219 219 218 217 216 217 219 219 219 219 219 219 219 220 220 221 221 221 221 222 222 222 222 222 223 225 226 227 227 226 225 224 223 223 223 224 224 224 225 226 226 227 227 227 227 227 227 226 225 224 222 221 223
330 326 320 312 305 303 305 309 315 319 323 327 330 333 335 339 346 352 353 348 342 337 327 306 278 255 239 231 228 226 225 223 222 221 220 219 219 219 218 217 217 218 219 219 219 218 219 220 220 220 221 221 221 221 222 222 223 222 222 223 224 225 226 227 227 226 225 224 223 223 224 224 224 224 225 226 227 228 228 228 228 227 227 226 225 223 221 221
329 325 321 312 304 302 303 308 314 320 324 328 330 332 336 341 347 354 357 355 351 347 341 328 302 270 247 233 227 225 224 223 223 222 221 220 220 220 219 218 218 218 219 220 220 219 219 219 220 220 221 221 221 221 221 221 222 222 222 223 223 224 225 226 226 227 226 225 224 223 224 224 224 224 224 225 227 228 228 228 228 227 227 227 226 225 223 221
328 324 320 312 302 299 301 306 312 319 324 327 330 332 336 342 347 353 356 357 355 353 349 341 326 298 264 242 232 227 223 221 222 223 222 221 221 221 220 219 219 219 220 220 221 220 219 220 220 220 221 221 221 221 222 222 221 222 222 223 224 224 224 225 226 227 227 226 225 224 224 224 224 224 224 224 225 227 228 228 228 228 227 227 227 226 225 223
327 323 318 310 300 296 298 303 309 316 322 327 329 331 335 340 346 351 354 357 358 357 356 351 339 322 294 259 240 231 225 220 220 222 222 221 221 222 222 221 220 220 220 221 221 221 221 221 221 220 221 222 221 221 221 221 221 221 221 222 224 225 224 224 225 226 226 226 226 226 224 223 224 224 224 224 224 225 226 227 228 228 228 227 227 227 226 225
Height
10909 10908 10907 10906 10905 10904 10903 10903 10902 10902 10902 10902 10902 10902 10903 10903 10904 10905 10906 10908 10909 10910 10911 10913 10914 10916 10918 10920 10923 10926 10929 10931 10933 10936 10938 10941 10944 10946 10950 10953 10956 10958 10960 10963 10966 10969 10973 10977 10980 10983 10986 10989 10991 10994 10996 10998 10999 11000 11001 11002 11003 11003 11003 11004 11006 11007 11007 11008 11009 11009 11009 11009 11009 11009 11008 11008 11009 11009 11008 11008 11006 11005 11003 11002 11001 11000 10998 10997
10907 10906 10905 10904 10903 10902 10901 10900 10900 10899 10899 10899 10899 10899 10900 10900 10901 10901 10902 10904 10905 10907 10908 10909 10911 10912 10914 10916 10919 10922 10925 10927 10929 10932 10934 10938 10940 10942 10946 10950 10952 10955 10957 10960 10963 10966 10970 10974 10977 10980 10983 10986 10989 10992 10994 10996 10998 10999 11000 11001 11001 11001 11002 11003 11005 11006 11006 11007 11008 11009 11009 11008 11008 11007 11007 11008 11009 11009 11008 11007 11006 11005 11004 11003 11002 11001 11000 10999
10904 10903 10902 10901 10900 10899 10898 10897 10897 10896 10896 10896 10896 10896 10896 10896 10897 10897 10898 10899 10901 10903 10904 10905 10907 10909 10910 10912 10915 10918 10921 10923 10925 10928 10930 10933 10936 10938 10942 10946 10949 10952 10954 10957 10959 10962 10966 10970 10974 10977 10980 10984 10987 10990 10992 10994 10996 10998 10999 11000 11000 11000 11000 11002 11004 11005 11006 11006 11007 11007 11008 11007 11007 11006 11006 11008 11008 11008 11008 11007 11007 11006 11005 11004 11003 11002 11001 11000
10902 10900 10899 10898 10897 10896 10895 10895 10894 10893 10893 10892 10892 10892 10892 10892 10892 10893 10894 10895 10896 10898 10899 10901 10903 10905 10907 10908 10910 10913 10917 10919 10921 10924 10926 10929 10932 10934 10938 10942 10945 10948 10951 10953 10956 10958 10962 10966 10971 10975 10978 10981 10985 10987 10990 10992 10994 10996 10998 10999 10999 10999 11000 11002 11003 11004 11005 11005 11006 11006 11006 11007 11007 11006 11006 11007 11008 11007 11008 11008 11007 11007 11006 11005 11004 11003 11003 11001
10899 10898 10896 10895 10894 10893 10892 10892 10891 10890 10889 10889 10889 10889 10889 10889 10889 10889 10890 10891 10892 10893 10895 10896 10898 10900 10902 10904 10906 10909 10912 10914 10917 10920 10922 10925 10927 10930 10934 10938 10941 10945 10948 10950 10952 10955 10958 10963 10968 10972 10976 10979 10982 10985 10987 10989 10991 10994 10996 10998 10998 10999 11000 11001 11003 11004 11004 11004 11005 11006 11006 11006 11006 11006 11007 11007 11007 11007 11008 11008 11008 11007 11007 11006 11005 11004 11003 11002
10896 10894 10893 10892 10891 10890 10889 10888 10887 10887 10886 10885 10885 10885 10885 10886 10885 10885 10886 10886 10887 10888 10889 10891 10893 10895 10897 10899 10902 10905 10907 10910 10912 10915 10918 10920 10923 10926 10930 10933 10937 10941 10944 10946 10948 10951 10955 10959 10964 10969 10972 10976 10979 10982 10984 10986 10988 10991 10994 10997 10997 10998 10999 11001 11003 11004 11005 11004 11005 11006 11006 11005 11005 11005 11006 11006 11006 11006 11007 11008 11008 11008 11007 11006 11006 11005 11004 11003
10892 10891 10889 10888 10887 10886 10885 10884 10883 10883 10882 10882 10881 10881 10881 10881 10881 10881 10882 10882 10882 10883 10883 10885 10887 10890 10892 10894 10897 10900 10903 10905 10907 10911 10913 10916 10919 10921 10925 10929 10933 10936 10939 10942 10945 10948 10952 10956 10961 10965 10969 10972 10975 10978 10981 10983 10986 10989 10992 10995 10996 10997 10998 11001 11004 11004 11005 11004 11003 11005 11005 11005 11005 11005 11005 11005 11005 11006 11007 11008 11008 11008 11008 11007 11007 11006 11005 11004
10888 10886 10885 10884 10882 10881 10880 10879 10878 10878 10878 10877 10877 10877 10877 10877 10876 10877 10877 10878 10878 10878 10878 10879 10881 10884 10886 10889 10892 10895 10898 10900 10903 10906 10909 10911 10914 10917 10921 10925 10928 10932 10935 10938 10941 10944 10948 10953 10958 10962 10966 10969 10972 10975 10978 10981 10984 10987 10990 10993 10995 10996 10997 11000 11003 11004 11003 11003 11003 11005 11005 11005 11005 11004 11004 11005 11005 11006 11007 11007 11008 11009 11008 11007 11007 11006 11005 11005
10883 10881 10880 10878 10877 10876 10875 10874 10873 10872 10872 10872 10871 10871 10871 10872 10871 10871 10872 10873 10874 10873 10872 10873 10875 10877 10880 10883 10886 10889 10892 10895 10898 10902 10904 10907 10910 10913 10916 10920 10924 10927 10930 10934 10938 10940 10944 10949 10955 10959 10962 10965 10969 10973 10975 10977 10980 10983 10988 10991 10993 10995 10996 10997 11000 11002 11002 11002 11003 11004 11005 11005 11005 11004 11004 11005 11005 11005 11006 11007 11008 11008 11008 11008 11007 11006 11005 11005
10877 10875 10874 10872 10871 10869 10868 10867 10866 10866 10866 10866 10866 10866 10866 10866 10866 10865 10866 10868 10869 10868 10867 10868 10869 10871 10874 10877 10880 10884 10887 10889 10893 10897 10899 10902 10904 10907 10911 10915 10919 10922 10925 10930 10932 10935 10940 10946 10951 10955 10958 10962 10967 10969 10970 10972 10975 10980 10986 10990 10991 10992 10994 10995 10997 10998 10999 11001 11003 11003 11003 11003 11003 11003 11003 11004 11005 11005 11006 11007 11007 11008 11009 11008 11008 11007 11006 11005
10871 10869 10867 10865 10863 10862 10861 10860 10859 10859 10859 10859 10859 10859 10859 10859 10859 10859 10859 10862 10863 10862 10862 10863 10863 10865 10867 10870 10874 10878 10880 10883 10886 10890 10893 10896 10898 10902 10905 10909 10913 10916 10920 10923 10927 10932 10939 10945 10948 10950 10955 10960 10963 10964 10965 10968 10971 10976 10983 10988 10988 10989 10992 10995 10996 10996 10997 10999 11001 11002 11002 11003 11001 11001 11002 11003 11004 11004 11005 11006 11007 11008 11009 11009 11009 11008 11007 11006
10864 10861 10859 10857 10855 10854 10853 10852 10851 10851 10851 10851 10852 10852 10852 10852 10852 10852 10853 10854 10856 10856 10856 10857 10857 10859 10861 10864 10867 10871 10873 10876 10879 10883 10887 10890 10893 10896 10900 10903 10907 10911 10914 10918 10924 10931 10936 10940 10943 10946 10950 10955 10957 10960 10963 10965 10969 10974 10980 10985 10986 10987 10991 10995 10996 10996 10997 10998 10999 11000 11000 11001 11000 10999 11000 11001 11002 11004 11004 11006 11007 11008 11008 11009 11009 11009 11008 11007
10856 10853 10851 10849 10847 10845 10844 10843 10842 10842 10842 10842 10843 10843 10844 10844 10844 10845 10846 10847 10848 10849 10850 10850 10851 10852 10855 10858 10860 10862 10865 10869 10872 10876 10880 10884 10887 10891 10894 10897 10901 10905 10909 10914 10921 10927 10931 10934 10937 10941 10945 10949 10953 10957 10960 10962 10966 10970 10976 10980 10982 10985 10989 10993 10995 10995 10995 10996 10996 10997 10997 10999 10999 10999 11000 11000 11001 11003 11004 11005 11007 11007 11008 11009 11009 11009 11009 11008
10848 10845 10842 10840 10838 10836 10834 10833 10832 10832 10832 10832 10833 10833 10834 10835 10835 10836 10837 10838 10839 10840 10841 10843 10844 10846 10849 10851 10852 10854 10857 10862 10865 10869 10873 10877 10881 10886 10889 10892 10895 10899 10903 10909 10915 10921 10925 10929 10932 10936 10939 10944 10949 10953 10957 10958 10962 10966 10971 10975 10977 10980 10986 10990 10994 10994 10992 10993 10993 10995 10996 10997 10998 10999 11000 11000 11001 11002 11003 11004 11006 11007 11008 11008 11009 11009 11009 11009
10839 10836 10833 10830 10828 10825 10823 10822 10822 10821 10821 10822 10822 10823 10823 10824 10825 10826 10827 10829 10830 10831 10832 10835 10837 10840 10842 10843 10844 10846 10850 10855 10859 10863 10867 10871 10876 10880 10883 10886 10889 10894 10899 10904 10910 10915 10919 10923 10927 10931 10934 10939 10945 10950 10953 10955 10958 10962 10966 10971 10973 10977 10982 10987 10991 10992 10990 10991 10991 10993 10995 10997 10998 10999 10999 11000 11001 11002 11003 11004 11005 11007 11008 11008 11009 11009 11009 11009
10829 10826 10823 10819 10816 10813 10811 10810 10809 10809 10810 10810 10811 10811 10812 10813 10814 10815 10817 10818 10819 10821 10824 10826 10830 10833 10835 10835 10835 10838 10843 10848 10853 10857 10862 10866 10870 10874 10878 10882 10885 10890 10894 10898 10904 10909 10913 10918 10922 10925 10929 10935 10941 10945 10948 10951 10954 10957 10961 10967 10970 10974 10978 10983 10987 10987 10986 10987 10989 10992 10995 10996 10997 10998 10999 11000 11001 11002 11002 11003 11004 11006 11008 11008 11008 11009 11009 11009
10818 10814 10811 10807 10803 10800 10797 10796 10796 10796 10796 10797 10798 10798 10799 10800 10802 10803 10805 10808 10809 10812 10815 10818 10822 10825 10827 10828 10828 10832 10838 10844 10847 10851 10856 10861 10864 10868 10872 10876 10879 10883 10888 10893 10898 10903 10907 10912 10916 10920 10925 10931 10936 10940 10945 10947 10948 10951 10956 10962 10967 10971 10975 10980 10982 10982 10982 10985 10989 10991 10994 10995 10996 10997 10998 11000 11001 11002 11002 11003 11004 11006 11007 11008 11009 11009 11009 11010
10806 10802 10797 10793 10788 10785 10783 10781 10781 10780 10781 10782 10783 10783 10785 10787 10789 10791 10794 10796 10798 10801 10804 10809 10812 10816 10820 10823 10823 10826 10832 10837 10840 10843 10848 10853 10857 10861 10865 10869 10874 10878 10882 10887 10892 10897 10902 10907 10911 10916 10922 10927 10931 10935 10937 10938 10941 10947 10952 10957 10963 10967 10972 10977 10979 10980 10981 10984 10988 10990 10992 10994 10995 10996 10998 10999 11000 11002 11002 11003 11004 11006 11007 11008 11009 11010 11010 11010
10793 10788 10782 10776 10772 10769 10767 10765 10764 10764 10764 10765 10766 10767 10770 10773 10775 10778 10781 10784 10786 10789 10793 10798 10802 10807 10813 10816 10816 10819 10823 10828 10832 10835 10838 10844 10849 10853 10857 10863 10868 10872 10876 10880 10885 10890 10896 10902 10907 10913 10918 10921 10924 10925 10926 10931 10939 10946 10950 10954 10959 10964 10969 10973 10975 10976 10978 10982 10986 10989 10991 10993 10995 10996 10998 10999 10999 11000 11002 11003 11004 11006 11007 11008 11009 11010 11010 11011
10779 10772 10765 10759 10754 10751 10749 10747 10746 10746 10746 10747 10748 10751 10754 10756 10759 10763 10768 10770 10772 10776 10782 10787 10793 10799 10804 10807 10808 10811 10815 10819 10824 10827 10830 10835 10841 10846 10850 10855 10860 10864 10869 10873 10878 10884 10890 10897 10903 10907 10909 10912 10913 10913 10919 10929 10938 10942 10946 10950 10955 10960 10963 10966 10970 10973 10976 10980 10985 10988 10990 10992 10994 10996 10997 10997 10996 10997 10999 11001 11003 11005 11006 11008 11009 11010 11010 11011
10763 10755 10748 10741 10736 10733 10731 10729 10728 10727 10727 10729 10731 10733 10736 10739 10743 10749 10753 10755 10759 10764 10771 10777 10783 10789 10794 10797 10800 10803 10806 10810 10815 10820 10823 10827 10833 10840 10844 10848 10852 10857 10860 10865 10873 10879 10886 10892 10896 10897 10899 10902 10905 10908 10917 10927 10933 10937 10942 10946 10950 10954 10958 10963 10969 10972 10975 10980 10985 10988 10988 10989 10992 10994 10994 10994 10993 10995 10998 11000 11002 11003 11005 11007 11009 11010 11010 11011
10747 10738 10731 10725 10720 10717 10714 10712 10711 10711 10711 10713 10714 10717 10720 10723 10728 10735 10738 10742 10747 10754 10761 10766 10772 10779 10784 10787 10790 10793 10796 10799 10806 10811 10814 10818 10824 10831 10837 10840 10844 10848 10853 10860 10868 10874 10880 10884 10884 10887 10892 10896 10901 10906 10914 10922 10929 10933 10937 10942 10945 10950 10956 10962 10965 10969 10973 10978 10983 10984 10982 10984 10988 10991 10993 10992 10993 10996 10997 10999 11001 11003 11005 11006 11008 11009 11010 11010
10731 10723 10716 10711 10706 10704 10702 10700 10698 10698 10698 10699 10701 10704 10706 10710 10716 10722 10726 10730 10737 10744 10750 10756 10762 10768 10773 10776 10779 10783 10786 10791 10797 10802 10806 10809 10814 10821 10828 10832 10834 10840 10848 10855 10861 10867 10870 10870 10872 10879 10886 10891 10896 10902 10909 10917 10925 10930 10933 10936 10939 10945 10950 10954 10959 10965 10970 10974 10977 10976 10974 10979 10984 10988 10990 10990 10992 10994 10994 10996 11000 11002 11004 11006 11007 11008 11009 11010
10718 10711 10705 10700 10696 10694 10692 10690 10688 10688 10688 10689 10691 10693 10696 10700 10705 10710 10714 10719 10725 10732 10738 10744 10750 10755 10759 10763 10767 10772 10777 10783 10788 10793 10798 10802 10807 10813 10819 10824 10827 10833 10841 10847 10853 10857 10857 10859 10867 10875 10881 10885 10890 10895 10903 10912 10919 10925 10928 10929 10933 10937 10940 10946 10955 10962 10966 10969 10972 10969 10969 10975 10982 10986 10987 10987 10990 10992 10992 10994 10998 11001 11003 11005 11006 11007 11008 11009
10707 10701 10696 10692 10688 10686 10684 10682 10681 10680 10681 10682 10683 10685 10687 10691 10694 10698 10703 10708 10714 10721 10727 10733 10738 10742 10746 10751 10757 10763 10768 10773 10778 10784 10789 10794 10799 10804 10810 10816 10821 10826 10832 10838 10843 10846 10848 10855 10864 10871 10876 10880 10885 10890 10899 10906 10913 10919 10922 10924 10926 10928 10933 10943 10951 10957 10961 10963 10963 10962 10965 10972 10978 10982 10982 10983 10987 10989 10991 10994 10997 11000 11002 11004 11006 11006 11008 11008
10699 10694 10690 10686 10682 10679 10677 10676 10675 10675 10675 10676 10677 10678 10680 10683 10686 10689 10693 10698 10704 10711 10717 10722 10726 10731 10737 10743 10750 10754 10758 10763 10769 10775 10781 10786 10791 10797 10803 10808 10812 10817 10823 10829 10835 10838 10843 10851 10858 10863 10868 10874 10879 10885 10893 10899 10906 10913 10916 10916 10917 10921 10930 10939 10945 10949 10952 10953 10956 10959 10964 10969 10973 10977 10978 10981 10984 10987 10990 10994 10996 10999 11001 11004 11005 11005 11007 11008
10694 10689 10685 10681 10678 10675 10673 10672 10671 10671 10671 10671 10672 10673 10675 10677 10680 10683 10687 10691 10696 10702 10707 10712 10717 10722 10728 10734 10739 10742 10747 10755 10762 10767 10773 10778 10784 10791 10796 10800 10805 10810 10816 10824 10830 10832 10838 10846 10851 10856 10862 10868 10874 10880 10886 10892 10901 10906 10907 10908 10911 10916 10925 10932 10936 10940 10943 10948 10954 10958 10962 10966 10969 10972 10974 10977 10981 10984 10988 10992 10995 10998 11000 11002 11003 11004 11005 11007
10689 10685 10681 10678 10675 10673 10671 10669 10669 10668 10668 10668 10669 10670 10672 10674 10676 10678 10682 10686 10690 10694 10699 10703 10708 10713 10719 10725 10729 10733 10740 10748 10753 10758 10763 10768 10775 10783 10788 10792 10797 10803 10811 10820 10823 10825 10831 10838 10843 10848 10855 10862 10868 10871 10875 10884 10892 10894 10896 10902 10906 10911 10918 10923 10927 10932 10939 10947 10951 10953 10957 10961 10963 10966 10969 10973 10978 10982 10986 10990 10993 10996 10998 11001 11002 11003 11004 11006
10685 10681 10678 10675 10673 10671 10669 10668 10667 10667 10667 10667 10667 10668 10669 10671 10673 10675 10678 10681 10684 10688 10692 10697 10702 10707 10712 10717 10722 10726 10732 10738 10744 10751 10756 10760 10766 10773 10778 10785 10790 10797 10805 10811 10812 10817 10824 10829 10835 10843 10851 10857 10858 10859 10866 10876 10880 10881 10889 10897 10901 10906 10912 10916 10922 10928 10935 10943 10946 10947 10951 10954 10957 10961 10965 10970 10975 10979 10984 10988 10991 10994 10996 10998 11000 11001 11003 11004
10682 10679 10676 10673 10671 10670 10668 10667 10667 10666 10665 10665 10666 10666 10667 10669 10670 10672 10675 10678 10681 10684 10688 10692 10696 10700 10705 10710 10714 10718 10722 10728 10736 10743 10748 10752 10757 10763 10770 10778 10785 10791 10798 10802 10804 10809 10814 10819 10828 10838 10845 10847 10847 10850 10860 10866 10867 10872 10883 10888 10894 10902 10907 10912 10918 10924 10932 10938 10939 10939 10943 10948 10952 10956 10962 10966 10970 10975 10981 10985 10988 10991 10993 10995 10998 10999 11001 11003
10680 10677 10674 10672 10670 10669 10668 10667 10666 10665 10664 10664 10664 10665 10666 10667 10669 10670 10672 10675 10678 10681 10684 10688 10691 10695 10699 10703 10706 10709 10713 10719 10726 10732 10737 10742 10747 10753 10762 10771 10778 10785 10790 10792 10794 10798 10804 10812 10822 10829 10832 10834 10838 10845 10853 10856 10858 10868 10876 10880 10889 10898 10903 10907 10913 10920 10927 10930 10929 10930 10937 10944 10946 10952 10959 10963 10967 10972 10978 10982 10986 10989 10991 10993 10995 10997 11000 11002
10678 10675 10673 10671 10669 10668 10667 10666 10665 10664 10664 10663 10664 10664 10665 10666 10667 10669 10671 10673 10675 10678 10680 10683 10687 10690 10694 10697 10700 10702 10706 10711 10716 10722 10727 10732 10737 10743 10751 10760 10768 10774 10778 10780 10783 10791 10799 10807 10815 10818 10821 10826 10832 10838 10844 10848 10855 10865 10870 10876 10885 10892 10898 10903 10906 10914 10919 10918 10919 10925 10932 10937 10940 10947 10955 10960 10965 10971 10976 10980 10983 10985 10988 10991 10993 10995 10998 11000
10677 10674 10672 10670 10669 10667 10666 10665 10664 10663 10663 10662 10663 10663 10664 10665 10666 10667 10668 10670 10672 10674 10676 10678 10681 10684 10687 10690 10693 10696 10699 10702 10707 10713 10718 10722 10728 10734 10740 10748 10756 10762 10765 10770 10778 10785 10793 10800 10806 10810 10816 10822 10827 10833 10837 10842 10850 10859 10865 10870 10879 10887 10896 10898 10901 10908 10911 10910 10914 10919 10925 10931 10936 10944 10952 10957 10962 10967 10972 10977 10980 10982 10985 10988 10991 10994 10995 10998
10675 10672 10671 10669 10668 10667 10665 10664 10663 10663 10662 10662 10662 10662 10663 10664 10665 10665 10666 10667 10669 10671 10672 10674 10676 10679 10681 10683 10686 10689 10692 10694 10698 10704 10709 10712 10717 10723 10728 10735 10743 10750 10755 10762 10771 10778 10785 10793 10800 10805 10811 10817 10822 10827 10831 10835 10842 10849 10855 10862 10871 10882 10890 10892 10896 10902 10902 10903 10907 10913 10921 10928 10933 10941 10948 10952 10958 10964 10967 10972 10976 10978 10980 10983 10987 10990 10992 10994
10673 10671 10669 10668 10667 10666 10664 10663 10663 10662 10661 10661 10661 10662 10662 10663 10663 10664 10664 10664 10665 10667 10668 10669 10671 10673 10675 10677 10680 10683 10685 10688 10692 10696 10699 10703 10709 10714 10719 10726 10734 10741 10748 10756 10764 10772 10779 10788 10794 10799 10805 10811 10815 10819 10823 10828 10833 10839 10848 10856 10863 10873 10881 10885 10890 10892 10891 10894 10900 10909 10919 10923 10927 10935 10942 10947 10954 10959 10963 10967 10970 10972 10975 10978 10980 10983 10987 10989
10672 10669 10668 10666 10665 10664 10663 10662 10661 10661 10660 10660 10660 10661 10661 10661 10662 10662 10662 10662 10662 10663 10663 10664 10666 10668 10670 10673 10676 10678 10679 10682 10686 10689 10693 10699 10705 10709 10715 10723 10732 10740 10747 10754 10762 10769 10775 10782 10787 10793 10799 10803 10807 10811 10816 10819 10823 10833 10843 10849 10854 10863 10871 10876 10882 10883 10884 10889 10896 10906 10915 10918 10923 10932 10937 10943 10949 10954 10958 10962 10965 10968 10971 10973 10975 10978 10982 10985
10670 10668 10666 10665 10664 10663 10662 10661 10660 10659 10659 10659 10659 10659 10659 10659 10659 10660 10660 10659 10659 10658 10658 10660 10661 10663 10665 10668 10670 10672 10674 10677 10679 10682 10688 10695 10701 10707 10713 10720 10729 10738 10744 10752 10760 10766 10770 10775 10780 10786 10791 10793 10797 10803 10808 10811 10816 10827 10836 10840 10847 10856 10861 10866 10873 10876 10879 10886 10894 10903 10910 10914 10922 10928 10932 10937 10942 10947 10952 10956 10959 10963 10966 10969 10973 10977 10980 10982
10669 10667 10665 10663 10662 10661 10660 10659 10658 10657 10657 10657 10657 10657 10657 10657 10656 10656 10656 10655 10655 10654 10653 10653 10654 10657 10660 10662 10665 10667 10669 10672 10674 10678 10684 10691 10698 10704 10709 10715 10724 10731 10737 10745 10752 10757 10762 10769 10775 10780 10782 10785 10790 10796 10801 10804 10811 10821 10827 10832 10841 10848 10852 10858 10865 10870 10876 10883 10890 10897 10904 10911 10919 10924 10926 10930 10935 10940 10945 10949 10952 10956 10961 10966 10970 10974 10977 10980
10667 10664 10663 10661 10660 10659 10658 10657 10656 10655 10655 10655 10654 10654 10653 10653 10652 10651 10650 10650 10649 10648 10647 10646 10647 10650 10654 10657 10659 10662 10664 10666 10669 10673 10679 10686 10692 10698 10703 10709 10717 10722 10728 10735 10742 10747 10754 10762 10767 10771 10774 10779 10786 10791 10795 10799 10805 10814 10821 10827 10834 10840 10843 10848 10856 10863 10870 10877 10883 10889 10897 10905 10913 10917 10920 10924 10930 10934 10939 10943 10947 10952 10957 10962 10966 10968 10971 10975
10666 10663 10661 10659 10658 10657 10656 10655 10654 10653 10652 10652 10651 10650 10649 10648 10646 10645 10643 10642 10642 10640 10639 10639 10640 10643 10647 10650 10653 10655 10657 10658 10662 10668 10673 10678 10683 10689 10695 10702 10708 10712 10718 10725 10731 10738 10746 10752 10758 10762 10768 10774 10780 10784 10788 10792 10796 10804 10812 10819 10826 10831 10835 10840 10848 10856 10863 10871 10876 10882 10890 10898 10904 10908 10913 10919 10925 10930 10934 10939 10944 10949 10953 10958 10961 10964 10966 10970
10664 10661 10659 10657 10656 10655 10654 10653 10651 10650 10649 10648 10647 10646 10645 10643 10641 10638 10636 10634 10633 10631 10630 10631 10634 10637 10639 10641 10644 10647 10648 10651 10657 10663 10666 10669 10673 10679 10686 10693 10698 10703 10709 10716 10721 10727 10734 10741 10748 10754 10760 10766 10770 10775 10779 10782 10786 10793 10800 10807 10814 10821 10827 10834 10842 10850 10858 10865 10870 10877 10884 10889 10895 10901 10907 10912 10919 10924 10929 10934 10939 10944 10948 10952 10955 10959 10963 10966
10661 10659 10657 10655 10654 10653 10651 10650 10649 10648 10646 10644 10643 10641 10640 10637 10635 10633 10629 10626 10624 10623 10621 10622 10625 10628 10630 10632 10635 10639 10641 10645 10652 10656 10658 10663 10668 10674 10679 10685 10689 10694 10701 10707 10713 10718 10725 10732 10738 10744 10750 10756 10762 10767 10770 10773 10778 10783 10789 10796 10803 10811 10820 10828 10837 10846 10853 10859 10864 10870 10877 10883 10891 10898 10902 10906 10912 10917 10921 10927 10933 10937 10942 10945 10949 10954 10959 10962
10657 10655 10654 10652 10651 10650 10648 10647 10646 10644 10643 10641 10640 10638 10635 10633 10630 10627 10624 10620 10617 10615 10614 10614 10616 10619 10621 10623 10626 10631 10633 10638 10644 10647 10651 10657 10662 10666 10672 10677 10681 10685 10692 10699 10704 10710 10718 10725 10731 10736 10741 10746 10751 10756 10760 10764 10770 10774 10779 10787 10795 10805 10814 10822 10831 10840 10848 10855 10860 10865 10872 10880 10888 10893 10896 10900 10905 10910 10915 10921 10926 10931 10934 10937 10942 10950 10955 10959
10654 10652 10650 10648 10647 10646 10645 10644 10642 10641 10640 10639 10637 10634 10632 10629 10625 10622 10618 10615 10612 10610 10608 10607 10608 10610 10613 10615 10618 10622 10625 10630 10635 10639 10644 10649 10653 10657 10664 10670 10674 10678 10683 10689 10694 10701 10709 10717 10723 10727 10732 10737 10742 10746 10750 10756 10761 10765 10770 10780 10790 10800 10809 10817 10825 10832 10839 10848 10854 10859 10867 10874 10880 10885 10889 10893 10897 10904 10910 10915 10919 10923 10926 10930 10937 10944 10948 10953
10652 10649 10647 10645 10644 10643 10642 10641 10640 10639 10637 10636 10634 10631 10628 10625 10622 10618 10614 10611 10608 10605 10603 10602 10602 10603 10605 10608 10611 10614 10618 10623 10628 10631 10636 10641 10645 10650 10656 10662 10667 10672 10677 10681 10686 10692 10700 10707 10713 10718 10723 10728 10732 10736 10742 10748 10754 10759 10766 10776 10783 10791 10801 10810 10816 10823 10832 10840 10846 10852 10859 10866 10872 10878 10882 10886 10891 10897 10902 10907 10911 10915 10919 10924 10931 10936 10936 10941
10650 10647 10645 10643 10641 10641 10640 10639 10638 10636 10634 10633 10632 10629 10626 10623 10619 10615 10610 10607 10605 10602 10600 10599 10598 10599 10600 10602 10604 10608 10612 10616 10621 10624 10629 10634 10639 10644 10649 10655 10661 10665 10670 10674 10679 10685 10691 10697 10703 10707 10712 10718 10723 10729 10736 10743 10749 10756 10764 10771 10776 10783 10793 10800 10806 10814 10824 10832 10838 10844 10851 10858 10865 10871 10875 10878 10883 10888 10892 10897 10901 10905 10911 10917 10924 10928 10929 10933
10647 10645 10642 10640 10639 10638 10638 10637 10635 10634 10632 10631 10629 10627 10624 10621 10618 10613 10608 10604 10602 10600 10597 10596 10595 10595 10596 10598 10600 10602 10606 10610 10614 10617 10622 10627 10632 10637 10643 10648 10653 10657 10661 10666 10672 10678 10682 10687 10693 10697 10702 10708 10714 10721 10728 10735 10742 10749 10757 10765 10770 10776 10782 10789 10797 10805 10814 10823 10831 10837 10843 10850 10857 10862 10865 10869 10874 10878 10882 10887 10892 10897 10903 10910 10916 10921 10924 10927
10645 10642 10640 10638 10636 10636 10635 10634 10633 10631 10630 10628 10626 10624 10622 10619 10616 10611 10606 10602 10600 10597 10595 10594 10592 10592 10593 10594 10596 10597 10600 10603 10606 10610 10615 10620 10624 10630 10636 10641 10644 10648 10652 10657 10663 10669 10673 10677 10682 10687 10693 10699 10706 10713 10720 10727 10734 10742 10751 10757 10761 10766 10772 10780 10789 10796 10804 10814 10822 10829 10834 10840 10846 10851 10856 10860 10865 10870 10875 10880 10885 10891 10896 10902 10907 10912 10917 10920
10641 10639 10637 10635 10634 10633 10632 10632 10630 10629 10627 10625 10623 10621 10619 10616 10614 10610 10605 10601 10599 10596 10594 10592 10591 10589 10589 10590 10591 10593 10595 10598 10600 10603 10608 10613 10617 10622 10629 10634 10637 10640 10644 10648 10653 10659 10665 10669 10673 10679 10684 10690 10697 10704 10711 10719 10727 10735 10742 10748 10752 10757 10763 10772 10780 10786 10793 10803 10812 10819 10825 10830 10836 10843 10848 10853 10859 10865 10870 10874 10878 10884 10888 10892 10897 10903 10908 10913
10639 10637 10635 10633 10631 10630 10629 10628 10627 10626 10624 10623 10621 10619 10617 10614 10611 10608 10604 10601 10598 10595 10592 10591 10589 10588 10587 10587 10588 10589 10590 10593 10595 10598 10602 10607 10612 10616 10621 10627 10630 10633 10636 10640 10645 10651 10656 10660 10665 10671 10676 10682 10689 10696 10703 10710 10718 10725 10732 10737 10742 10748 10754 10762 10770 10775 10783 10793 10802 10809 10816 10822 10829 10836 10842 10848 10855 10859 10863 10866 10868 10873 10878 10883 10889 10896 10902 10907
10637 10634 10633 10631 10629 10627 10626 10626 10625 10623 10622 10620 10618 10616 10614 10612 10609 10606 10603 10600 10597 10594 10591 10589 10588 10587 10585 10585 10585 10586 10587 10589 10591 10593 10597 10602 10606 10610 10615 10620 10624 10627 10630 10634 10639 10645 10650 10654 10658 10665 10670 10676 10682 10689 10694 10701 10708 10716 10723 10727 10730 10735 10743 10751 10759 10766 10774 10783 10790 10798 10806 10813 10820 10827 10833 10840 10845 10849 10852 10855 10858 10862 10868 10874 10881 10889 10895 10900
10633 10631 10630 10628 10626 10625 10624 10623 10622 10621 10619 10618 10615 10613 10611 10610 10608 10605 10602 10599 10596 10593 10591 10588 10586 10585 10584 10583 10583 10583 10584 10585 10587 10589 10591 10595 10599 10603 10608 10613 10617 10620 10624 10628 10633 10639 10645 10649 10653 10659 10665 10670 10675 10680 10684 10691 10699 10706 10712 10717 10719 10724 10733 10742 10749 10756 10765 10773 10780 10786 10794 10801 10807 10815 10824 10830 10834 10838 10841 10842 10845 10851 10859 10866 10873 10881 10887 10892